Weather History for Lugano, Switzerland

Change the Weather History Date:

Sunday, May 25, 2014

  Actual Average Record
Temperature  
Mean Temperature 64 °F -  
Max Temperature 73 °F 71 °F 86 °F (2011)
Min Temperature 55 °F 56 °F 42 °F (2004)
Degree Days  
Heating Degree Days 1    
Growing Degree Days 14 (Base 50)    
Moisture  
Dew Point 51 °F    
Average Humidity 62    
Maximum Humidity 94    
Minimum Humidity 30    
Precipitation  
Precipitation 0.00 in 0.24 in - ()
Sea Level Pressure  
Sea Level Pressure 30.04 in    
Wind  
Wind Speed 2 mph ()    
Max Wind Speed 6 mph    
Max Gust Speed -    
Visibility 7.0 miles    
Events      
Averages and records for this station are not official NWS values.
T = Trace of Precipitation, MM = Missing Value Source: Averaged Metar Reports

Daily Weather History Graph

Daily Weather History Graph

Search for Another Location

Airport:

Trip Planner

Search our weather history database for the weather conditions in past years. The results will help you decide how hot, cold, wet, or windy it might be!

Date:

Astronomy

May. 25, 2014 Rise Set
Actual Time 5:42 AM CEST 9:00 PM CEST
Civil Twilight 5:05 AM CEST 9:37 PM CEST
Nautical Twilight 4:18 AM CEST 10:25 PM CEST
Astronomical Twilight 3:18 AM CEST 11:25 PM CEST
Moon 3:49 AM CEST (5/25) 5:33 PM CEST (5/25)
Length of Visible Light 16h 31m
Length of Day
15h 18m
Waning Crescent, 12% of the Moon is Illuminated
May 25
Waning Crescent
May 28
New
Jun 5
First Quarter
Jun 13
Full
Jun 19
Last Quarter

Hourly Weather History & Observations

Time (CEST) Temp. Dew Point Humidity Pressure Visibility Wind Dir Wind Speed Gust Speed Precip Events Conditions
12:00 AM 61 °F 50 °F 58% 30.04 in - North 2.3 mph - -  
12:20 AM 57.2 °F 51.8 °F 82% 30.04 in - Variable 1.2 mph - N/A   Clear
12:50 AM 57.2 °F 51.8 °F 82% 30.04 in - Variable 1.2 mph - N/A   Clear
1:00 AM 60 °F 51 °F 63% 30.05 in - North 1.2 mph - -  
1:20 AM 55.4 °F 51.8 °F 88% 30.04 in - SE 2.3 mph - N/A   Clear
1:50 AM 55.4 °F 51.8 °F 88% 30.04 in - Variable 1.2 mph - N/A   Clear
2:00 AM 58 °F 51 °F 70% 30.05 in 28 mi NNW 1.2 mph - -  
2:20 AM 55.4 °F 51.8 °F 88% 30.04 in - Variable 1.2 mph - N/A   Clear
2:50 AM 53.6 °F 51.8 °F 94% 30.04 in - Variable 1.2 mph - N/A   Clear
3:00 AM 58 °F 50 °F 68% 30.05 in - NNW 2.3 mph - -  
3:20 AM 53.6 °F 50.0 °F 88% 30.04 in - North 2.3 mph - N/A   Clear
3:50 AM 51.8 °F 50.0 °F 94% 30.04 in - NNW 3.5 mph - N/A   Clear
4:00 AM 57 °F 50 °F 70% 30.05 in - North 2.3 mph - -  
4:20 AM 51.8 °F 50.0 °F 94% 30.04 in - Variable 1.2 mph - N/A   Clear
4:50 AM 51.8 °F 50.0 °F 94% 30.06 in - North 2.3 mph - N/A   Clear
5:00 AM 56 °F 49 °F 72% 30.06 in - North 1.2 mph - -  
5:20 AM 51.8 °F 50.0 °F 94% 30.06 in - Variable 2.3 mph - N/A   Clear
5:50 AM 50.0 °F 48.2 °F 94% 30.06 in - Variable 1.2 mph - N/A   Clear
6:00 AM 55 °F 49 °F 73% 30.08 in - North 1.2 mph - -  
6:20 AM 50.0 °F 48.2 °F 94% 30.06 in - North 3.5 mph - N/A   Clear
6:50 AM 50.0 °F 48.2 °F 94% 30.06 in - Variable 2.3 mph - N/A   Clear
7:00 AM 56 °F 49 °F 70% 30.09 in - NNW 1.2 mph - -  
7:20 AM 51.8 °F 50.0 °F 94% 30.09 in - SE 2.3 mph - N/A   Clear
7:50 AM 53.6 °F 51.8 °F 94% 30.09 in - Variable 1.2 mph - N/A   Clear
8:00 AM 58 °F 51 °F 70% 30.09 in 28 mi NE 1.2 mph - -  
8:20 AM 57.2 °F 51.8 °F 82% 30.09 in - Variable 1.2 mph - N/A   Clear
8:50 AM 59.0 °F 53.6 °F 82% 30.09 in 6.2 mi Variable 1.2 mph - N/A   Scattered Clouds
9:00 AM 61 °F 52 °F 63% 30.08 in - ESE 1.2 mph - -  
9:20 AM 62.6 °F 53.6 °F 72% 30.09 in 6.2 mi Variable 1.2 mph - N/A   Scattered Clouds
9:50 AM 64.4 °F 50.0 °F 59% 30.09 in 6.2 mi Variable 2.3 mph - N/A   Scattered Clouds
10:00 AM 62 °F 51 °F 59% 30.08 in - South 1.2 mph - -  
10:20 AM 68.0 °F 51.8 °F 56% 30.06 in 6.2 mi Variable 2.3 mph - N/A   Scattered Clouds
10:50 AM 68.0 °F 50.0 °F 52% 30.06 in 6.2 mi Variable 2.3 mph - N/A   Scattered Clouds
11:00 AM 63 °F 50 °F 53% 30.07 in - SSW 1.2 mph - -  
11:20 AM 68.0 °F 51.8 °F 56% 30.06 in 6.2 mi South 3.5 mph - N/A   Scattered Clouds
11:50 AM 69.8 °F 50.0 °F 49% 30.06 in 6.2 mi Variable 2.3 mph - N/A   Scattered Clouds
12:00 PM 68 °F 49 °F 39% 30.06 in - ENE 1.2 mph - -  
12:20 PM 73.4 °F 50.0 °F 44% 30.06 in 6.2 mi South 4.6 mph - N/A   Scattered Clouds
12:50 PM 73.4 °F 48.2 °F 41% 30.06 in 6.2 mi South 5.8 mph - N/A   Scattered Clouds
1:00 PM 69 °F 51 °F 43% 30.04 in - SE 3.5 mph - -  
1:20 PM 75.2 °F 46.4 °F 36% 30.04 in 6.2 mi South 5.8 mph - N/A   Scattered Clouds
1:50 PM 73.4 °F 48.2 °F 41% 30.04 in 6.2 mi South 5.8 mph - N/A   Scattered Clouds
2:00 PM 73 °F 49 °F 32% 30.02 in 19 mi SE 2.3 mph - -   Mostly Cloudy
2:20 PM 77.0 °F 50.0 °F 39% 30.04 in 6.2 mi South 4.6 mph - N/A   Scattered Clouds
2:50 PM 73.4 °F 50.0 °F 44% 30.04 in 6.2 mi South 5.8 mph - N/A   Scattered Clouds
3:00 PM 72 °F 50 °F 35% 30.01 in - South 3.5 mph - -  
3:20 PM 75.2 °F 50.0 °F 41% 30.04 in 6.2 mi South 3.5 mph - N/A   Scattered Clouds
3:50 PM 75.2 °F 48.2 °F 38% 30.01 in 6.2 mi South 4.6 mph - N/A   Scattered Clouds
4:00 PM 73 °F 48 °F 30% 29.99 in - SSW 1.2 mph - -  
4:20 PM 75.2 °F 50.0 °F 41% 30.01 in 6.2 mi SSW 5.8 mph - N/A   Scattered Clouds
4:50 PM 75.2 °F 48.2 °F 38% 30.01 in 6.2 mi South 4.6 mph - N/A   Scattered Clouds
5:00 PM 72 °F 50 °F 34% 29.98 in - ESE 3.5 mph - -  
5:20 PM 75.2 °F 48.2 °F 38% 30.01 in 6.2 mi Variable 2.3 mph - N/A   Scattered Clouds
5:50 PM 75.2 °F 48.2 °F 38% 30.01 in 6.2 mi WSW 4.6 mph - N/A   Scattered Clouds
6:00 PM 72 °F 51 °F 36% 29.98 in - SSW 3.5 mph - -  
6:20 PM 73.4 °F 48.2 °F 41% 30.01 in 6.2 mi WSW 4.6 mph - N/A   Scattered Clouds
6:50 PM 73.4 °F 46.4 °F 38% 29.98 in 6.2 mi West 3.5 mph - N/A   Scattered Clouds
7:00 PM 70 °F 56 °F 52% 29.97 in - South 2.3 mph - -  
7:20 PM 73.4 °F 51.8 °F 47% 29.98 in 6.2 mi Variable 2.3 mph - N/A   Scattered Clouds
7:50 PM 69.8 °F 55.4 °F 60% 29.98 in 6.2 mi Variable 1.2 mph - N/A   Scattered Clouds
8:00 PM 70 °F 51 °F 41% 29.97 in 19 mi SSE 2.3 mph - -   Overcast
8:20 PM 69.8 °F 53.6 °F 56% 29.98 in 6.2 mi Variable 1.2 mph - N/A   Partly Cloudy
8:50 PM 66.2 °F 51.8 °F 60% 30.01 in 6.2 mi Variable 2.3 mph - N/A   Partly Cloudy
9:00 PM 67 °F 56 °F 60% 29.98 in - West 1.2 mph - -  
9:20 PM 64.4 °F 51.8 °F 64% 30.01 in 6.2 mi Variable 1.2 mph - N/A   Partly Cloudy
9:50 PM 64.4 °F 51.8 °F 64% 30.01 in - Variable 1.2 mph - N/A   Clear
10:00 PM 66 °F 54 °F 57% 30.00 in - West 2.3 mph - -  
10:20 PM 62.6 °F 50.0 °F 63% 30.01 in 6.2 mi North 1.2 mph - N/A   Partly Cloudy
10:50 PM 62.6 °F 51.8 °F 68% 30.01 in 6.2 mi North 1.2 mph - N/A   Mostly Cloudy
11:00 PM 64 °F 51 °F 54% 30.01 in - North 2.3 mph - -  
11:20 PM 60.8 °F 51.8 °F 72% 30.01 in 6.2 mi Variable 1.2 mph - N/A   Partly Cloudy
11:50 PM 60.8 °F 51.8 °F 72% 30.01 in 6.2 mi Variable 1.2 mph - N/A   Unknown